Pensacola NAS, FL

11:24 PM CDT on May 25, 2017 (GMT -0500)
Pensacola Naval Air Station

Weather History for KNPA - October, 2011

Change the Weather History Date:

Tuesday, October 4, 2011

  Actual Average Record
Temperature  
Mean Temperature 63 °F -  
Max Temperature 79 °F 79 °F 89 °F (1998)
Min Temperature 48 °F 64 °F 48 °F (2011)
Degree Days  
Heating Degree Days 2    
Growing Degree Days 13 (Base 50)    
Moisture  
Dew Point 50 °F    
Average Humidity 65    
Maximum Humidity 93    
Minimum Humidity 32    
Precipitation  
Precipitation 0.00 in - - ()
Sea Level Pressure  
Sea Level Pressure 30.18 in    
Wind  
Wind Speed 4 mph (NE)    
Max Wind Speed 10 mph    
Max Gust Speed -    
Visibility 10 miles    
Events      
Averages and records for this station are not official NWS values.
T = Trace of Precipitation, MM = Missing Value Source: NWS Daily Summary

Daily Weather History Graph

Daily Weather History Graph

Search for Another Location

Airport or City:

Trip Planner

Search our weather history database for the weather conditions in past years. The results will help you decide how hot, cold, wet, or windy it might be!

Date:

Astronomy

Oct. 04, 2011 Rise Set
Actual Time 6:44 AM CDT 6:31 PM CDT
Civil Twilight 6:20 AM CDT 6:55 PM CDT
Nautical Twilight 5:52 AM CDT 7:23 PM CDT
Astronomical Twilight 5:24 AM CDT 7:50 PM CDT
Moon 2:06 PM CDT (10/4) No Moon Set
Length of Visible Light 12h 34m
Length of Day
11h 46m
First Quarter, 56% of the Moon is Illuminated
Oct 4
First Quarter
Oct 11
Full
Oct 19
Last Quarter
Oct 26
New
Nov 2
First Quarter

Hourly Weather History & Observations

Time (CDT) Temp. Dew Point Humidity Pressure Visibility Wind Dir Wind Speed Gust Speed Precip Events Conditions
12:56 AM 55.0 °F 50.0 °F 83% 30.18 in 10.0 mi North 4.6 mph - N/A   Clear
1:56 AM 55.0 °F 46.9 °F 74% 30.17 in 10.0 mi NNW 3.5 mph - N/A   Clear
2:56 AM 54.0 °F 46.9 °F 77% 30.17 in 10.0 mi North 4.6 mph - N/A   Clear
3:56 AM 53.1 °F 46.0 °F 77% 30.17 in 10.0 mi North 3.5 mph - N/A   Clear
4:56 AM 53.1 °F 45.0 °F 74% 30.17 in 10.0 mi Calm Calm - N/A   Clear
5:56 AM 51.1 °F 46.0 °F 83% 30.19 in 10.0 mi Calm Calm - N/A   Clear
6:56 AM 48.9 °F 46.0 °F 90% 30.21 in 10.0 mi Calm Calm - N/A   Clear
7:56 AM 60.1 °F 50.0 °F 69% 30.22 in 10.0 mi NNE 4.6 mph - N/A   Clear
8:56 AM 68.0 °F 48.9 °F 50% 30.23 in 10.0 mi NE 5.8 mph - N/A   Clear
9:56 AM 72.0 °F 46.9 °F 41% 30.24 in 10.0 mi ENE 9.2 mph - N/A   Partly Cloudy
10:56 AM 73.4 °F 46.4 °F 38% 30.25 in 10.0 mi ENE 10.4 mph - N/A   Partly Cloudy
11:56 AM 75.2 °F 48.2 °F 38% 30.23 in 10.0 mi East 6.9 mph - N/A   Partly Cloudy
12:56 PM 78.1 °F 46.0 °F 32% 30.20 in 10.0 mi East 6.9 mph - N/A   Clear
1:56 PM 78.1 °F 48.9 °F 36% 30.18 in 10.0 mi SE 6.9 mph - N/A   Clear
2:56 PM 78.1 °F 51.1 °F 39% 30.15 in 10.0 mi SSE 5.8 mph - N/A   Clear
3:56 PM 78.1 °F 52.0 °F 40% 30.14 in 10.0 mi South 6.9 mph - N/A   Partly Cloudy
4:56 PM 77.0 °F 53.1 °F 43% 30.13 in 10.0 mi SSW 4.6 mph - N/A   Partly Cloudy
5:56 PM 73.0 °F 55.0 °F 53% 30.13 in 10.0 mi SW 5.8 mph - N/A   Partly Cloudy
6:56 PM 63.0 °F 55.9 °F 78% 30.13 in 10.0 mi Calm Calm - N/A   Partly Cloudy
7:56 PM 60.1 °F 55.0 °F 83% 30.15 in 10.0 mi Calm Calm - N/A   Clear
8:56 PM 60.1 °F 55.0 °F 83% 30.16 in 10.0 mi Calm Calm - N/A   Clear
9:56 PM 57.0 °F 54.0 °F 89% 30.16 in 10.0 mi Calm Calm - N/A   Clear
10:56 PM 55.0 °F 53.1 °F 93% 30.16 in 10.0 mi NNW 3.5 mph - N/A   Clear
11:56 PM 54.0 °F 52.0 °F 93% 30.16 in 10.0 mi Calm Calm - N/A   Clear